Regional Weather Roundup
Issued by NWS

Home | Current Version | Previous Version | Text Only | Print | Product List | Glossary On
Versions: 1 2 3 4 5 6 7 8 9 10 11 12 13 14 15 16 17 18 19 20 21 22 23 24 25 26 27 28 29 30 31 32 33 34 35 36 37 38 39 40 41 42 43 44 45 46 47 48 49 50
000
ASUS43 KBIS 221910
RWRND

NORTH DAKOTA REGIONAL WEATHER ROUNDUP
NATIONAL WEATHER SERVICE BISMARCK ND
200 PM CDT FRI SEP 22 2017

NOTE: "FAIR" INDICATES FEW OR NO CLOUDS BELOW 12,000 FEET WITH NO
SIGNIFICANT WEATHER AND/OR OBSTRUCTIONS TO VISIBILITY.


NDZ001>003-009>011-017-222000-
NORTHWEST NORTH DAKOTA

CITY           SKY/WX    TMP DP  RH WIND       PRES   REMARKS
WILLISTON      CLOUDY    50  40  68 N17       29.99F
MINOT          LGT RAIN  50  43  77 N16       29.90R
MINOT AFB      CLOUDY    49  43  78 N12       29.89S
$$

NDZ018>021-031>035-040>046-222000-
SOUTHWEST NORTH DAKOTA

CITY           SKY/WX    TMP DP  RH WIND       PRES   REMARKS
BISMARCK       CLOUDY    53  46  77 N20G25    29.80R
DICKINSON      CLOUDY    50  38  63 N18G30    29.85F
GARRISON         N/A     48  40  73 N15G26    29.85R
HETTINGER ARPT CLOUDY    50  38  63 N18G30    29.86R
$$

NDZ004>008-012>016-024-026-027-054-222000-
NORTHEAST NORTH DAKOTA

CITY           SKY/WX    TMP DP  RH WIND       PRES   REMARKS
GRAND FORKS    CLOUDY    72  59  63 N10       29.73S
GRND FRKS AFB  PTSUNNY   68  55  62 NE17G24   29.73F
DEVILS LAKE    LGT RAIN  58  45  62 NE14      29.78F
$$

NDZ022-023-025-028>030-036>039-047>053-222000-
SOUTHEAST NORTH DAKOTA

CITY           SKY/WX    TMP DP  RH WIND       PRES   REMARKS
FARGO          CLOUDY    81  70  69 NW5       29.64F
JAMESTOWN      CLOUDY    62  56  80 NE10      29.69F
$$





USA.gov is the U.S. government's official web portal to all federal, state and local government web resources and services.